Check out our new BloomSky Weather System.

Active alerts


No alerts


Thunder radar  blitzortung!


Rain radar more information rain snow radar


Visit our other weather sites:

Template documentation
and downloads

And another site



Weather Underground History page Text

Daily Summary for November 26, 2017 Units:  English    Metric   Both
« Previous Day
Next Day »
Daily Weekly Monthly Yearly Custom
  High: Low: Average:
Temperature: 76.1 °F 50.4 °F 62.4 °F
Dew Point: 58.5 °F 47.3 °F 53.3 °F
Humidity: 99 % 46 % 75 %
Wind Speed: 7.0 mph 0.0 mph 0.6 mph
Wind Gust: 10.0 mph - -
Wind:- - SSE
Pressure: 30.28 in 30.13 in -
Precipitation: 0.00 in    
Historical Graphs
 
 
Tabular Data for November 26, 2017
Time Temperature Dew Point Pressure Wind Wind Speed Wind Gust Humidity Rainfall Rate (Hourly)
00:03 59.5 °F 58.5 °F 30.14 in Calm   1.0 mph 96 % 0.00 in
00:08 59.4 °F 58.3 °F 30.13 in Calm   1.0 mph 96 % 0.00 in
00:13 59.4 °F 58.3 °F 30.14 in Calm   1.0 mph 96 % 0.00 in
00:18 59.4 °F 58.3 °F 30.14 in Calm     96 % 0.00 in
00:23 59.4 °F 58.3 °F 30.14 in Calm     96 % 0.00 in
00:28 59.4 °F 58.3 °F 30.14 in Calm     96 % 0.00 in
00:33 59.4 °F 58.3 °F 30.14 in Calm     96 % 0.00 in
00:38 59.2 °F 58.1 °F 30.14 in Calm     96 % 0.00 in
00:43 59.2 °F 58.1 °F 30.14 in Calm     96 % 0.00 in
00:48 59.2 °F 58.1 °F 30.14 in Calm     96 % 0.00 in
00:58 59.0 °F 57.9 °F 30.14 in Calm     96 % 0.00 in
01:08 58.3 °F 57.2 °F 30.13 in Calm     96 % 0.00 in
01:13 57.9 °F 56.8 °F 30.13 in Calm     96 % 0.00 in
01:18 57.7 °F 56.7 °F 30.13 in Calm     96 % 0.00 in
01:23 57.6 °F 56.5 °F 30.13 in Calm     96 % 0.00 in
01:28 57.4 °F 56.3 °F 30.13 in Calm     96 % 0.00 in
01:33 57.4 °F 56.5 °F 30.13 in Calm     97 % 0.00 in
01:38 57.4 °F 56.5 °F 30.13 in Calm     97 % 0.00 in
01:43 57.2 °F 56.3 °F 30.13 in Calm     97 % 0.00 in
01:48 57.0 °F 56.1 °F 30.13 in Calm     97 % 0.00 in
01:53 57.0 °F 56.1 °F 30.13 in Calm     97 % 0.00 in
01:58 56.8 °F 55.9 °F 30.13 in Calm     97 % 0.00 in
02:03 56.7 °F 55.8 °F 30.13 in Calm     97 % 0.00 in
02:08 56.7 °F 55.8 °F 30.13 in Calm     97 % 0.00 in
02:13 56.7 °F 55.8 °F 30.14 in Calm     97 % 0.00 in
02:18 56.7 °F 55.8 °F 30.14 in Calm     97 % 0.00 in
02:23 56.5 °F 55.6 °F 30.14 in Calm     97 % 0.00 in
02:28 56.1 °F 55.2 °F 30.14 in Calm     97 % 0.00 in
02:33 55.8 °F 54.9 °F 30.14 in Calm     97 % 0.00 in
02:38 55.8 °F 54.9 °F 30.14 in Calm     97 % 0.00 in
02:44 55.8 °F 55.2 °F 30.14 in Calm     98 % 0.00 in
02:54 55.4 °F 54.5 °F 30.14 in Calm     97 % 0.00 in
02:59 55.0 °F 54.1 °F 30.14 in Calm     97 % 0.00 in
03:04 55.0 °F 54.5 °F 30.14 in Calm     98 % 0.00 in
03:09 55.0 °F 54.5 °F 30.14 in Calm     98 % 0.00 in
03:14 55.0 °F 54.5 °F 30.14 in Calm     98 % 0.00 in
03:19 54.9 °F 54.3 °F 30.14 in Calm     98 % 0.00 in
03:24 54.9 °F 54.3 °F 30.14 in Calm     98 % 0.00 in
03:29 55.0 °F 54.5 °F 30.14 in Calm     98 % 0.00 in
03:34 55.0 °F 54.5 °F 30.14 in Calm     98 % 0.00 in
03:39 55.0 °F 54.5 °F 30.14 in Calm     98 % 0.00 in
03:44 54.9 °F 54.3 °F 30.14 in Calm     98 % 0.00 in
03:49 54.9 °F 54.3 °F 30.14 in Calm     98 % 0.00 in
03:54 54.7 °F 54.1 °F 30.15 in Calm     98 % 0.00 in
03:59 54.7 °F 54.1 °F 30.15 in Calm     98 % 0.00 in
04:04 54.7 °F 54.1 °F 30.14 in Calm     98 % 0.00 in
04:09 54.3 °F 53.8 °F 30.14 in Calm     98 % 0.00 in
04:14 54.0 °F 53.4 °F 30.14 in Calm     98 % 0.00 in
04:19 54.0 °F 53.4 °F 30.14 in Calm     98 % 0.00 in
04:24 54.1 °F 53.6 °F 30.14 in Calm     98 % 0.00 in
04:29 54.0 °F 53.4 °F 30.15 in Calm     98 % 0.00 in
04:34 54.1 °F 53.6 °F 30.15 in Calm     98 % 0.00 in
04:39 54.1 °F 53.6 °F 30.15 in Calm     98 % 0.00 in
04:44 54.3 °F 53.8 °F 30.16 in Calm     98 % 0.00 in
04:49 54.1 °F 53.6 °F 30.16 in Calm     98 % 0.00 in
04:54 54.0 °F 53.4 °F 30.16 in Calm     98 % 0.00 in
04:59 53.8 °F 53.2 °F 30.17 in Calm     98 % 0.00 in
05:04 53.8 °F 53.2 °F 30.17 in Calm     98 % 0.00 in
05:09 53.8 °F 53.2 °F 30.17 in Calm     98 % 0.00 in
05:14 54.1 °F 53.8 °F 30.17 in Calm     99 % 0.00 in
05:19 54.1 °F 53.6 °F 30.17 in Calm     98 % 0.00 in
05:24 54.1 °F 53.6 °F 30.17 in Calm     98 % 0.00 in
05:29 54.1 °F 53.6 °F 30.17 in Calm     98 % 0.00 in
05:34 54.0 °F 53.4 °F 30.18 in Calm     98 % 0.00 in
05:39 54.1 °F 53.8 °F 30.18 in Calm     99 % 0.00 in
05:44 54.1 °F 53.8 °F 30.18 in Calm     99 % 0.00 in
05:49 54.1 °F 53.6 °F 30.19 in Calm     98 % 0.00 in
05:54 54.0 °F 53.4 °F 30.19 in Calm     98 % 0.00 in
06:04 54.3 °F 54.0 °F 30.19 in Calm     99 % 0.00 in
06:09 54.5 °F 54.1 °F 30.20 in Calm     99 % 0.00 in
06:14 54.7 °F 54.3 °F 30.20 in Calm     99 % 0.00 in
06:19 54.7 °F 54.3 °F 30.20 in Calm     99 % 0.00 in
06:24 54.7 °F 54.3 °F 30.21 in Calm     99 % 0.00 in
06:29 54.7 °F 54.3 °F 30.21 in Calm     99 % 0.00 in
06:34 54.9 °F 54.5 °F 30.21 in Calm   1.0 mph 99 % 0.00 in
06:39 54.9 °F 54.5 °F 30.21 in Calm   1.0 mph 99 % 0.00 in
06:44 55.0 °F 54.7 °F 30.21 in North 1.0 mph 1.0 mph 99 % 0.00 in
06:49 55.2 °F 54.9 °F 30.21 in Calm   2.0 mph 99 % 0.00 in
06:59 55.2 °F 54.9 °F 30.22 in Calm   2.0 mph 99 % 0.00 in
07:04 55.2 °F 54.9 °F 30.22 in Calm   2.0 mph 99 % 0.00 in
07:09 55.0 °F 54.7 °F 30.22 in Calm   2.0 mph 99 % 0.00 in
07:14 55.0 °F 54.7 °F 30.22 in Calm   2.0 mph 99 % 0.00 in
07:19 55.0 °F 54.7 °F 30.23 in Calm   2.0 mph 99 % 0.00 in
07:24 55.0 °F 54.7 °F 30.23 in North 1.0 mph 2.0 mph 99 % 0.00 in
07:29 55.0 °F 54.7 °F 30.23 in Calm   2.0 mph 99 % 0.00 in
07:34 55.4 °F 55.0 °F 30.23 in Calm   2.0 mph 99 % 0.00 in
07:39 55.6 °F 55.2 °F 30.23 in ENE 3.0 mph 3.0 mph 99 % 0.00 in
07:44 55.8 °F 55.2 °F 30.23 in NE 1.0 mph 4.0 mph 98 % 0.00 in
07:49 56.1 °F 55.6 °F 30.24 in Calm   4.0 mph 98 % 0.00 in
07:54 56.3 °F 55.4 °F 30.24 in Calm   4.0 mph 97 % 0.00 in
07:55 56.3 °F 55.4 °F 30.24 in NE 1.0 mph 4.0 mph 97 % 0.00 in
08:00 56.7 °F 55.6 °F 30.24 in East 4.0 mph 6.0 mph 96 % 0.00 in
08:05 57.0 °F 55.6 °F 30.24 in ENE 1.0 mph 6.0 mph 95 % 0.00 in
08:10 57.6 °F 55.6 °F 30.24 in Calm   5.0 mph 93 % 0.00 in
08:15 57.9 °F 55.6 °F 30.25 in East 1.0 mph 4.0 mph 92 % 0.00 in
08:20 58.5 °F 55.6 °F 30.25 in ESE 1.0 mph 3.0 mph 90 % 0.00 in
08:25 59.2 °F 55.4 °F 30.25 in Calm   5.0 mph 87 % 0.00 in
08:30 59.4 °F 54.1 °F 30.25 in Calm   5.0 mph 83 % 0.00 in
08:35 59.9 °F 54.7 °F 30.25 in ENE 3.0 mph 5.0 mph 83 % 0.00 in
08:40 60.3 °F 54.3 °F 30.26 in East 1.0 mph 5.0 mph 81 % 0.00 in
08:45 60.8 °F 54.3 °F 30.26 in ESE 1.0 mph 5.0 mph 79 % 0.00 in
08:50 61.0 °F 54.1 °F 30.26 in Calm   5.0 mph 78 % 0.00 in
09:00 61.7 °F 53.2 °F 30.27 in Calm   6.0 mph 74 % 0.00 in
09:05 62.1 °F 53.2 °F 30.27 in ESE 1.0 mph 6.0 mph 73 % 0.00 in
09:10 62.8 °F 53.6 °F 30.27 in SE 1.0 mph 6.0 mph 72 % 0.00 in
09:15 63.5 °F 54.3 °F 30.27 in Calm   6.0 mph 72 % 0.00 in
09:20 63.7 °F 52.9 °F 30.27 in NNW 3.0 mph 6.0 mph 68 % 0.00 in
09:25 63.7 °F 53.2 °F 30.27 in East 3.0 mph 6.0 mph 69 % 0.00 in
09:30 64.0 °F 52.9 °F 30.27 in ENE 3.0 mph 6.0 mph 67 % 0.00 in
09:35 64.2 °F 52.7 °F 30.27 in ESE 1.0 mph 5.0 mph 66 % 0.00 in
09:40 64.8 °F 53.1 °F 30.27 in SSE 2.0 mph 6.0 mph 66 % 0.00 in
09:45 65.1 °F 52.7 °F 30.27 in SSE 1.0 mph 6.0 mph 64 % 0.00 in
09:50 65.5 °F 53.1 °F 30.27 in North 2.0 mph 6.0 mph 64 % 0.00 in
09:55 65.8 °F 52.9 °F 30.27 in East 2.0 mph 6.0 mph 63 % 0.00 in
10:00 66.6 °F 53.1 °F 30.27 in Calm   5.0 mph 62 % 0.00 in
10:05 66.7 °F 53.8 °F 30.27 in NNE 1.0 mph 5.0 mph 63 % 0.00 in
10:10 67.5 °F 53.6 °F 30.28 in Calm   5.0 mph 61 % 0.00 in
10:15 67.5 °F 53.1 °F 30.28 in East 1.0 mph 5.0 mph 60 % 0.00 in
10:20 67.5 °F 52.7 °F 30.28 in ENE 1.0 mph 5.0 mph 59 % 0.00 in
10:26 67.5 °F 51.6 °F 30.28 in ESE 3.0 mph 7.0 mph 57 % 0.00 in
10:31 67.6 °F 51.8 °F 30.27 in NE 7.0 mph 7.0 mph 57 % 0.00 in
10:36 67.8 °F 51.6 °F 30.27 in ENE 3.0 mph 8.0 mph 56 % 0.00 in
10:41 68.2 °F 52.3 °F 30.27 in East 3.0 mph 8.0 mph 57 % 0.00 in
10:46 68.5 °F 52.2 °F 30.27 in NW 1.0 mph 8.0 mph 56 % 0.00 in
10:51 68.7 °F 52.0 °F 30.27 in NE 2.0 mph 7.0 mph 55 % 0.00 in
10:56 69.1 °F 52.7 °F 30.27 in East 1.0 mph 7.0 mph 56 % 0.00 in
11:01 69.3 °F 52.0 °F 30.27 in NE 1.0 mph 7.0 mph 54 % 0.00 in
11:06 69.1 °F 52.2 °F 30.26 in North 1.0 mph 8.0 mph 55 % 0.00 in
11:11 69.4 °F 53.1 °F 30.26 in ENE 3.0 mph 8.0 mph 56 % 0.00 in
11:16 70.0 °F 52.0 °F 30.26 in ESE 2.0 mph 8.0 mph 53 % 0.00 in
11:21 70.5 °F 52.0 °F 30.26 in ENE 1.0 mph 10.0 mph 52 % 0.00 in
11:26 70.9 °F 52.9 °F 30.26 in NNW 1.0 mph 10.0 mph 53 % 0.00 in
11:31 71.8 °F 52.7 °F 30.25 in SSW 1.0 mph 10.0 mph 51 % 0.00 in
11:36 71.8 °F 52.7 °F 30.25 in Calm   5.0 mph 51 % 0.00 in
11:41 71.8 °F 52.7 °F 30.25 in ENE 4.0 mph 5.0 mph 51 % 0.00 in
11:46 71.6 °F 52.5 °F 30.25 in North 1.0 mph 5.0 mph 51 % 0.00 in
11:51 71.8 °F 52.7 °F 30.25 in ESE 2.0 mph 5.0 mph 51 % 0.00 in
11:56 72.0 °F 52.9 °F 30.25 in ESE 2.0 mph 5.0 mph 51 % 0.00 in
12:01 72.3 °F 53.2 °F 30.24 in Calm   5.0 mph 51 % 0.00 in
12:06 72.5 °F 52.9 °F 30.24 in North 3.0 mph 5.0 mph 50 % 0.00 in
12:11 72.9 °F 53.6 °F 30.24 in Calm   7.0 mph 51 % 0.00 in
12:16 73.6 °F 53.8 °F 30.23 in SSE 1.0 mph 7.0 mph 50 % 0.00 in
12:21 73.8 °F 53.4 °F 30.23 in ESE 1.0 mph 10.0 mph 49 % 0.00 in
12:26 73.9 °F 53.6 °F 30.23 in NNW 4.0 mph 10.0 mph 49 % 0.00 in
12:31 73.9 °F 53.1 °F 30.22 in Calm   10.0 mph 48 % 0.00 in
12:36 73.9 °F 53.6 °F 30.22 in ESE 4.0 mph 5.0 mph 49 % 0.00 in
12:41 74.1 °F 53.8 °F 30.22 in Calm   6.0 mph 49 % 0.00 in
12:46 74.7 °F 53.6 °F 30.22 in Calm   6.0 mph 48 % 0.00 in
12:51 74.7 °F 53.6 °F 30.21 in Calm   6.0 mph 48 % 0.00 in
12:56 74.7 °F 53.1 °F 30.21 in Calm   4.0 mph 47 % 0.00 in
13:01 74.5 °F 54.1 °F 30.20 in Calm   6.0 mph 49 % 0.00 in
13:06 74.5 °F 53.4 °F 30.20 in WNW 1.0 mph 6.0 mph 48 % 0.00 in
13:11 74.3 °F 52.7 °F 30.20 in Calm   6.0 mph 47 % 0.00 in
13:12 74.3 °F 52.7 °F 30.20 in Calm   6.0 mph 47 % 0.00 in
13:17 74.8 °F 53.8 °F 30.20 in East 2.0 mph 4.0 mph 48 % 0.00 in
13:22 75.0 °F 53.4 °F 30.20 in Calm   4.0 mph 47 % 0.00 in
13:27 75.2 °F 53.6 °F 30.20 in Calm   4.0 mph 47 % 0.00 in
13:32 75.4 °F 54.3 °F 30.19 in Calm   4.0 mph 48 % 0.00 in
13:37 75.9 °F 53.6 °F 30.19 in North 1.0 mph 4.0 mph 46 % 0.00 in
13:42 75.4 °F 53.2 °F 30.19 in WNW 1.0 mph 4.0 mph 46 % 0.00 in
13:47 75.6 °F 54.0 °F 30.19 in East 1.0 mph 4.0 mph 47 % 0.00 in
13:52 75.9 °F 54.3 °F 30.19 in NW 1.0 mph 5.0 mph 47 % 0.00 in
13:57 75.9 °F 54.3 °F 30.19 in ENE 2.0 mph 5.0 mph 47 % 0.00 in
14:02 75.9 °F 53.6 °F 30.19 in NNE 3.0 mph 5.0 mph 46 % 0.00 in
14:07 75.9 °F 54.9 °F 30.19 in NW 2.0 mph 4.0 mph 48 % 0.00 in
14:17 76.1 °F 54.3 °F 30.18 in North 3.0 mph 6.0 mph 47 % 0.00 in
14:22 75.7 °F 54.1 °F 30.18 in NW 1.0 mph 6.0 mph 47 % 0.00 in
14:27 75.6 °F 54.0 °F 30.18 in Calm   7.0 mph 47 % 0.00 in
14:32 75.9 °F 54.3 °F 30.18 in Calm   7.0 mph 47 % 0.00 in
14:37 76.1 °F 54.3 °F 30.18 in NE 3.0 mph 7.0 mph 47 % 0.00 in
14:42 76.1 °F 54.3 °F 30.18 in NE 2.0 mph 6.0 mph 47 % 0.00 in
14:47 76.1 °F 54.3 °F 30.18 in ENE 3.0 mph 6.0 mph 47 % 0.00 in
14:52 76.1 °F 55.0 °F 30.18 in Calm   6.0 mph 48 % 0.00 in
14:57 76.1 °F 53.8 °F 30.18 in NNW 3.0 mph 5.0 mph 46 % 0.00 in
15:02 75.4 °F 53.8 °F 30.18 in NNW 4.0 mph 8.0 mph 47 % 0.00 in
15:07 75.0 °F 54.0 °F 30.18 in NNW 1.0 mph 8.0 mph 48 % 0.00 in
15:12 75.2 °F 53.1 °F 30.18 in Calm   8.0 mph 46 % 0.00 in
15:17 75.0 °F 54.0 °F 30.18 in NNW 2.0 mph 6.0 mph 48 % 0.00 in
15:22 75.2 °F 53.6 °F 30.17 in NNW 3.0 mph 6.0 mph 47 % 0.00 in
15:27 74.8 °F 53.2 °F 30.18 in NW 2.0 mph 7.0 mph 47 % 0.00 in
15:32 74.7 °F 53.1 °F 30.18 in NW 4.0 mph 7.0 mph 47 % 0.00 in
15:37 74.7 °F 53.6 °F 30.18 in North 3.0 mph 7.0 mph 48 % 0.00 in
15:42 74.8 °F 53.8 °F 30.18 in NE 3.0 mph 4.0 mph 48 % 0.00 in
15:47 74.8 °F 53.8 °F 30.18 in Calm   4.0 mph 48 % 0.00 in
15:52 74.8 °F 53.2 °F 30.18 in WNW 2.0 mph 4.0 mph 47 % 0.00 in
15:57 74.5 °F 53.4 °F 30.18 in North 2.0 mph 7.0 mph 48 % 0.00 in
16:02 74.5 °F 53.4 °F 30.18 in NNW 4.0 mph 7.0 mph 48 % 0.00 in
16:07 74.1 °F 53.2 °F 30.18 in North 3.0 mph 7.0 mph 48 % 0.00 in
16:12 73.8 °F 53.4 °F 30.18 in NNW 1.0 mph 4.0 mph 49 % 0.00 in
16:17 73.8 °F 54.0 °F 30.18 in NW 2.0 mph 4.0 mph 50 % 0.00 in
16:22 73.6 °F 53.2 °F 30.18 in NW 1.0 mph 4.0 mph 49 % 0.00 in
16:27 73.4 °F 53.1 °F 30.18 in NNW 1.0 mph 4.0 mph 49 % 0.00 in
16:28 73.2 °F 52.9 °F 30.18 in Calm   4.0 mph 49 % 0.00 in
16:33 73.0 °F 53.2 °F 30.18 in Calm   4.0 mph 50 % 0.00 in
16:38 72.9 °F 53.1 °F 30.18 in NNE 3.0 mph 4.0 mph 50 % 0.00 in
16:43 72.7 °F 53.4 °F 30.17 in NNW 1.0 mph 4.0 mph 51 % 0.00 in
16:48 72.5 °F 53.4 °F 30.17 in North 1.0 mph 4.0 mph 51 % 0.00 in
16:53 72.1 °F 53.6 °F 30.17 in NE 1.0 mph 4.0 mph 52 % 0.00 in
16:58 72.0 °F 54.0 °F 30.17 in Calm   4.0 mph 53 % 0.00 in
17:03 71.4 °F 54.0 °F 30.17 in Calm   4.0 mph 54 % 0.00 in
17:08 71.1 °F 54.1 °F 30.17 in Calm   2.0 mph 55 % 0.00 in
17:13 70.5 °F 54.1 °F 30.18 in Calm   2.0 mph 56 % 0.00 in
17:18 70.2 °F 53.8 °F 30.18 in Calm   2.0 mph 56 % 0.00 in
17:23 69.6 °F 53.8 °F 30.18 in Calm   1.0 mph 57 % 0.00 in
17:28 69.1 °F 53.6 °F 30.18 in Calm   1.0 mph 58 % 0.00 in
17:33 68.5 °F 53.6 °F 30.18 in Calm   1.0 mph 59 % 0.00 in
17:38 68.0 °F 53.6 °F 30.17 in Calm   1.0 mph 60 % 0.00 in
17:43 67.5 °F 53.6 °F 30.17 in Calm   1.0 mph 61 % 0.00 in
17:48 67.1 °F 53.6 °F 30.18 in Calm   1.0 mph 62 % 0.00 in
17:53 66.6 °F 53.6 °F 30.18 in Calm   1.0 mph 63 % 0.00 in
17:58 66.2 °F 53.6 °F 30.18 in Calm   1.0 mph 64 % 0.00 in
18:03 65.7 °F 53.6 °F 30.18 in Calm   1.0 mph 65 % 0.00 in
18:08 65.5 °F 53.8 °F 30.18 in Calm   1.0 mph 66 % 0.00 in
18:13 65.1 °F 53.4 °F 30.18 in Calm   1.0 mph 66 % 0.00 in
18:18 64.8 °F 53.6 °F 30.18 in Calm   1.0 mph 67 % 0.00 in
18:23 64.4 °F 53.6 °F 30.18 in Calm     68 % 0.00 in
18:28 64.0 °F 53.2 °F 30.18 in Calm     68 % 0.00 in
18:33 63.3 °F 53.4 °F 30.18 in Calm     70 % 0.00 in
18:38 62.8 °F 53.2 °F 30.17 in Calm     71 % 0.00 in
18:43 62.2 °F 53.1 °F 30.18 in Calm     72 % 0.00 in
18:48 62.2 °F 53.1 °F 30.18 in Calm     72 % 0.00 in
18:53 62.1 °F 53.2 °F 30.18 in Calm     73 % 0.00 in
18:58 61.9 °F 53.1 °F 30.18 in Calm   1.0 mph 73 % 0.00 in
19:04 61.5 °F 52.7 °F 30.18 in Calm   1.0 mph 73 % 0.00 in
19:09 61.3 °F 53.1 °F 30.18 in Calm   1.0 mph 74 % 0.00 in
19:14 61.2 °F 52.9 °F 30.18 in Calm   1.0 mph 74 % 0.00 in
19:19 61.0 °F 52.7 °F 30.18 in Calm   1.0 mph 74 % 0.00 in
19:24 60.8 °F 52.9 °F 30.19 in Calm   1.0 mph 75 % 0.00 in
19:29 60.4 °F 52.5 °F 30.19 in Calm     75 % 0.00 in
19:34 60.3 °F 52.7 °F 30.19 in Calm     76 % 0.00 in
19:39 60.1 °F 52.5 °F 30.19 in Calm     76 % 0.00 in
19:44 59.7 °F 52.5 °F 30.19 in Calm     77 % 0.00 in
19:49 59.5 °F 52.3 °F 30.19 in Calm     77 % 0.00 in
19:59 59.2 °F 52.3 °F 30.19 in Calm   1.0 mph 78 % 0.00 in
20:04 59.0 °F 52.2 °F 30.19 in Calm   1.0 mph 78 % 0.00 in
20:09 58.8 °F 52.0 °F 30.19 in Calm   1.0 mph 78 % 0.00 in
20:14 58.6 °F 51.8 °F 30.19 in Calm     78 % 0.00 in
20:19 58.6 °F 51.8 °F 30.19 in Calm     78 % 0.00 in
20:24 58.3 °F 51.8 °F 30.19 in Calm     79 % 0.00 in
20:29 58.3 °F 51.8 °F 30.19 in Calm     79 % 0.00 in
20:34 57.9 °F 51.4 °F 30.19 in Calm     79 % 0.00 in
20:39 57.7 °F 51.3 °F 30.20 in Calm     79 % 0.00 in
20:44 57.6 °F 51.4 °F 30.19 in Calm     80 % 0.00 in
20:49 57.0 °F 50.5 °F 30.19 in Calm     79 % 0.00 in
20:54 56.5 °F 50.4 °F 30.19 in Calm     80 % 0.00 in
20:59 56.1 °F 50.7 °F 30.19 in Calm     82 % 0.00 in
21:04 56.5 °F 51.1 °F 30.19 in Calm     82 % 0.00 in
21:09 56.7 °F 50.9 °F 30.19 in Calm     81 % 0.00 in
21:14 56.7 °F 50.5 °F 30.19 in Calm     80 % 0.00 in
21:19 56.8 °F 50.7 °F 30.19 in Calm     80 % 0.00 in
21:24 56.8 °F 50.4 °F 30.19 in Calm     79 % 0.00 in
21:29 56.8 °F 50.4 °F 30.19 in Calm     79 % 0.00 in
21:34 56.8 °F 50.4 °F 30.19 in Calm     79 % 0.00 in
21:39 56.5 °F 50.0 °F 30.19 in Calm     79 % 0.00 in
21:44 56.1 °F 49.6 °F 30.19 in Calm     79 % 0.00 in
21:49 56.1 °F 50.0 °F 30.19 in Calm     80 % 0.00 in
21:54 55.9 °F 49.8 °F 30.19 in Calm     80 % 0.00 in
21:59 55.8 °F 49.6 °F 30.19 in Calm     80 % 0.00 in
22:04 55.4 °F 49.3 °F 30.19 in Calm     80 % 0.00 in
22:09 55.0 °F 48.9 °F 30.19 in Calm     80 % 0.00 in
22:14 54.7 °F 49.3 °F 30.19 in Calm     82 % 0.00 in
22:19 54.1 °F 49.1 °F 30.19 in Calm     83 % 0.00 in
22:20 54.1 °F 49.1 °F 30.19 in Calm     83 % 0.00 in
22:24 54.0 °F 48.9 °F 30.19 in Calm     83 % 0.00 in
22:30 53.4 °F 48.4 °F 30.19 in Calm     83 % 0.00 in
22:35 53.2 °F 48.9 °F 30.19 in Calm     85 % 0.00 in
22:40 53.1 °F 48.9 °F 30.19 in Calm     86 % 0.00 in
22:45 52.9 °F 48.7 °F 30.19 in Calm     86 % 0.00 in
22:50 52.7 °F 48.6 °F 30.19 in Calm     86 % 0.00 in
22:55 52.5 °F 48.4 °F 30.19 in Calm     86 % 0.00 in
23:00 52.7 °F 48.9 °F 30.19 in Calm     87 % 0.00 in
23:05 52.5 °F 48.4 °F 30.19 in Calm     86 % 0.00 in
23:10 52.3 °F 48.2 °F 30.19 in Calm     86 % 0.00 in
23:15 52.3 °F 48.6 °F 30.19 in Calm     87 % 0.00 in
23:20 52.2 °F 48.4 °F 30.19 in Calm     87 % 0.00 in
23:25 51.8 °F 47.7 °F 30.19 in Calm     86 % 0.00 in
23:30 51.4 °F 48.0 °F 30.19 in Calm     88 % 0.00 in
23:35 51.4 °F 48.0 °F 30.19 in Calm     88 % 0.00 in
23:40 51.1 °F 47.3 °F 30.19 in Calm     87 % 0.00 in
23:45 50.7 °F 47.3 °F 30.19 in Calm     88 % 0.00 in
23:50 50.5 °F 47.5 °F 30.19 in Calm     89 % 0.00 in
23:55 50.4 °F 47.3 °F 30.19 in Calm     89 % 0.00 in
Spring, Texas: Villages of Bridgestone
Compliments of Weather Underground - 3.25 mb

Script developed by  Jim McMurry - jmcmurry@mwt.net Adapted for the template by  Wim van der Kuil - Leuven-Template.eu

You find our weather info also at:

UK Metoffice

WeatherCloud

Weather Underground

Mid-South Weather Network

AWEKAS

Citizen Weather Observer Program (CWOP)

HAMweather, WeatherForYou, PWS Weather

Equipment we use:

Weather-station
Davis Vantage Vue

Weather-program
Meteohub

Weather-server
Debian 7.9 x86 (Guest)

Provider
DreamHost

Davis Vantage Vue

Meteohub

Debian 7.9 x86 (Guest)

DreamHost